When you browse on this site, cookies collect data to enhance your experience and personalize the content and advertising you see.
Visit our Privacy Policy to learn more. By continuing to use the site, you agree to this use of cookies and data.
  • Em Portugal
  • Lista de países
  • Para 7 dias
  • Temperatura da água
  • Mapas de satélite
  • Mapa do tempo
  • Widgets de tempo
  • user-avatar
    Iniciar Sessão

    Previsão horária em Albani

    Hoje, 19 Fevereiro, Terça-feira

    Tempo Temperatura Precipitação Vento Pressão Humidade
    00:00 +15°C° 0 mm 4 m/s 759 mmHg 86%
    01:00 +14°C° 0 mm 4 m/s 759 mmHg 87%
    02:00 +14°C° 0 mm 4 m/s 759 mmHg 89%
    03:00 +14°C° 0 mm 3 m/s 759 mmHg 90%
    04:00 +14°C° 0 mm 3 m/s 759 mmHg 90%
    05:00 +14°C° 0 mm 3 m/s 759 mmHg 91%
    06:00 +16°C° 0 mm 3 m/s 759 mmHg 85%
    07:00 +18°C° 0 mm 3 m/s 760 mmHg 79%
    08:00 +19°C° 0 mm 3 m/s 760 mmHg 73%
    09:00 +21°C° 0 mm 4 m/s 760 mmHg 66%
    10:00 +22°C° 0 mm 4 m/s 760 mmHg 59%
    11:00 +25°C° 0 mm 4 m/s 759 mmHg 53%
    12:00 +25°C° 0 mm 5 m/s 759 mmHg 53%
    13:00 +25°C° 0 mm 5 m/s 759 mmHg 54%
    14:00 +26°C° 0 mm 6 m/s 759 mmHg 54%
    15:00 +24°C° 0 mm 6 m/s 759 mmHg 58%
    16:00 +22°C° 0 mm 6 m/s 759 mmHg 61%
    17:00 +21°C° 0 mm 6 m/s 759 mmHg 65%
    18:00 +20°C° 0 mm 6 m/s 759 mmHg 71%
    19:00 +19°C° 0 mm 6 m/s 759 mmHg 77%
    20:00 +17°C° 0 mm 6 m/s 759 mmHg 83%
    21:00 +16°C° 0 mm 5 m/s 760 mmHg 84%
    22:00 +16°C° 0 mm 5 m/s 760 mmHg 85%
    23:00 +16°C° 0 mm 5 m/s 760 mmHg 86%

    Amanhã, 20 Fevereiro, Quarta-feira

    Tempo Temperatura Precipitação Vento Pressão Humidade
    00:00 +16°C° 0 mm 5 m/s 759 mmHg 86%
    01:00 +16°C° 0 mm 5 m/s 759 mmHg 87%
    02:00 +16°C° 0 mm 5 m/s 759 mmHg 88%
    03:00 +16°C° 0 mm 5 m/s 759 mmHg 88%
    04:00 +16°C° 0 mm 5 m/s 759 mmHg 89%
    05:00 +17°C° 0 mm 4 m/s 759 mmHg 90%
    06:00 +17°C° 0 mm 5 m/s 759 mmHg 84%
    07:00 +19°C° 0 mm 5 m/s 758 mmHg 79%
    08:00 +21°C° 0 mm 6 m/s 758 mmHg 73%
    09:00 +22°C° 0 mm 6 m/s 758 mmHg 68%
    10:00 +24°C° 0 mm 6 m/s 757 mmHg 63%
    11:00 +27°C° 0 mm 7 m/s 757 mmHg 57%
    12:00 +28°C° 0 mm 7 m/s 756 mmHg 54%
    13:00 +29°C° 0 mm 7 m/s 756 mmHg 50%
    14:00 +30°C° 0 mm 7 m/s 755 mmHg 47%
    15:00 +29°C° 0 mm 7 m/s 755 mmHg 50%
    16:00 +28°C° 0 mm 7 m/s 754 mmHg 53%
    17:00 +27°C° 0 mm 7 m/s 754 mmHg 57%
    18:00 +24°C° 0 mm 7 m/s 753 mmHg 65%
    19:00 +22°C° 0 mm 7 m/s 753 mmHg 72%
    20:00 +21°C° 0 mm 7 m/s 753 mmHg 80%
    21:00 +21°C° 0 mm 6 m/s 753 mmHg 82%
    22:00 +20°C° 0 mm 5 m/s 753 mmHg 84%
    23:00 +20°C° 0 mm 5 m/s 753 mmHg 85%

    Depois de amanhã, 21 Fevereiro, Quinta-feira

    Tempo Temperatura Precipitação Vento Pressão Humidade
    00:00 +21°C° 0 mm 4 m/s 753 mmHg 84%
    01:00 +21°C° 0 mm 4 m/s 752 mmHg 83%
    02:00 +21°C° 0 mm 3 m/s 752 mmHg 82%
    03:00 +20°C° 0 mm 3 m/s 752 mmHg 86%
    04:00 +20°C° 0 mm 2 m/s 752 mmHg 90%
    05:00 +19°C° 0 mm 2 m/s 752 mmHg 95%
    06:00 +20°C° 0 mm 2 m/s 752 mmHg 90%
    07:00 +21°C° 0 mm 3 m/s 752 mmHg 85%
    08:00 +22°C° 0 mm 4 m/s 753 mmHg 80%
    09:00 +23°C° 0 mm 4 m/s 753 mmHg 74%
    10:00 +26°C° 0 mm 5 m/s 753 mmHg 69%
    11:00 +27°C° 0 mm 5 m/s 754 mmHg 63%
    12:00 +27°C° 0 mm 6 m/s 754 mmHg 61%
    13:00 +27°C° 0 mm 6 m/s 753 mmHg 59%
    14:00 +27°C° 0 mm 6 m/s 753 mmHg 57%
    15:00 +26°C° 0 mm 6 m/s 753 mmHg 61%
    16:00 +24°C° 0 mm 6 m/s 754 mmHg 64%
    17:00 +23°C° 0 mm 6 m/s 754 mmHg 68%
    18:00 +22°C° 0 mm 5 m/s 754 mmHg 75%
    19:00 +20°C° 0 mm 5 m/s 755 mmHg 83%
    20:00 +19°C° 0 mm 4 m/s 755 mmHg 90%
    21:00 +18°C° 0 mm 3 m/s 755 mmHg 91%
    22:00 +18°C° 0 mm 3 m/s 756 mmHg 92%
    23:00 +18°C° 0 mm 3 m/s 756 mmHg 93%

    22 Fevereiro, Sexta-feira

    Tempo Temperatura Precipitação Vento Pressão Humidade
    00:00 +17°C° 0 mm 2 m/s 756 mmHg 94%
    01:00 +17°C° 0 mm 2 m/s 755 mmHg 94%
    02:00 +18°C° 0 mm 1 m/s 755 mmHg 95%
    03:00 +18°C° 0 mm 1 m/s 755 mmHg 95%
    04:00 +16°C° 0 mm 1 m/s 755 mmHg 95%
    05:00 +16°C° 0 mm 1 m/s 755 mmHg 96%
    06:00 +19°C° 0 mm 1 m/s 755 mmHg 89%
    07:00 +20°C° 0 mm 1 m/s 756 mmHg 82%
    08:00 +21°C° 0 mm 1 m/s 756 mmHg 75%
    09:00 +24°C° 0 mm 1 m/s 756 mmHg 64%
    10:00 +27°C° 0 mm 1 m/s 756 mmHg 53%
    11:00 +30°C° 0 mm 1 m/s 755 mmHg 42%
    12:00 +30°C° 0 mm 2 m/s 755 mmHg 42%
    13:00 +31°C° 0 mm 3 m/s 754 mmHg 41%
    14:00 +32°C° 0 mm 4 m/s 754 mmHg 40%
    15:00 +29°C° 0 mm 4 m/s 754 mmHg 47%
    16:00 +27°C° 0 mm 4 m/s 754 mmHg 53%
    17:00 +25°C° 0 mm 4 m/s 754 mmHg 59%
    18:00 +22°C° 0 mm 3 m/s 754 mmHg 67%
    19:00 +20°C° 0 mm 2 m/s 755 mmHg 74%
    20:00 +20°C° 0 mm 1 m/s 755 mmHg 82%
    21:00 +19°C° 0 mm 1 m/s 756 mmHg 83%
    22:00 +19°C° 0 mm 1 m/s 756 mmHg 85%
    23:00 +19°C° 0 mm 1 m/s 756 mmHg 86%

    23 Fevereiro, Sábado

    Tempo Temperatura Precipitação Vento Pressão Humidade
    00:00 +19°C° 0 mm 1 m/s 756 mmHg 84%
    01:00 +18°C° 0 mm 1 m/s 756 mmHg 82%
    02:00 +18°C° 0 mm 1 m/s 755 mmHg 80%
    03:00 +18°C° 0 mm 1 m/s 755 mmHg 79%
    04:00 +17°C° 0 mm 2 m/s 755 mmHg 79%
    05:00 +17°C° 0 mm 2 m/s 755 mmHg 78%
    06:00 +19°C° 0 mm 2 m/s 755 mmHg 71%
    07:00 +20°C° 0 mm 2 m/s 756 mmHg 65%
    08:00 +22°C° 0 mm 3 m/s 756 mmHg 59%
    09:00 +26°C° 0 mm 3 m/s 756 mmHg 51%
    10:00 +28°C° 0 mm 3 m/s 756 mmHg 44%
    11:00 +30°C° 0 mm 2 m/s 756 mmHg 37%
    12:00 +31°C° 0 mm 3 m/s 756 mmHg 37%
    13:00 +32°C° 0 mm 4 m/s 755 mmHg 38%
    14:00 +32°C° 0 mm 5 m/s 755 mmHg 38%
    15:00 +30°C° 0 mm 5 m/s 755 mmHg 45%
    16:00 +28°C° 0 mm 5 m/s 755 mmHg 52%
    17:00 +27°C° 0 mm 5 m/s 755 mmHg 59%
    18:00 +25°C° 0 mm 4 m/s 756 mmHg 67%
    19:00 +22°C° 0 mm 3 m/s 757 mmHg 75%
    20:00 +21°C° 0 mm 2 m/s 757 mmHg 82%
    21:00 +21°C° 0 mm 2 m/s 758 mmHg 84%
    22:00 +21°C° 0 mm 2 m/s 758 mmHg 86%
    23:00 +21°C° 0 mm 2 m/s 758 mmHg 88%

    24 Fevereiro, Domingo

    Tempo Temperatura Precipitação Vento Pressão Humidade
    00:00 +20°C° 0 mm 2 m/s 758 mmHg 90%
    01:00 +20°C° 0 mm 2 m/s 758 mmHg 92%
    02:00 +20°C° 0 mm 2 m/s 758 mmHg 93%
    03:00 +21°C° 0 mm 1 m/s 758 mmHg 94%
    04:00 +20°C° 0 mm 1 m/s 758 mmHg 94%
    05:00 +20°C° 0 mm 1 m/s 758 mmHg 94%
    06:00 +21°C° 0 mm 1 m/s 759 mmHg 90%
    07:00 +22°C° 0 mm 1 m/s 759 mmHg 85%
    08:00 +22°C° 0 mm 1 m/s 759 mmHg 81%
    09:00 +23°C° 0 mm 1 m/s 759 mmHg 77%
    10:00 +24°C° 0 mm 2 m/s 759 mmHg 73%
    11:00 +25°C° 0 mm 2 m/s 759 mmHg 69%
    12:00 +25°C° 0 mm 3 m/s 759 mmHg 67%
    13:00 +26°C° 0 mm 3 m/s 758 mmHg 64%
    14:00 +26°C° 0 mm 4 m/s 758 mmHg 62%
    15:00 +25°C° 0 mm 4 m/s 758 mmHg 66%
    16:00 +22°C° 0 mm 4 m/s 758 mmHg 71%
    17:00 +21°C° 0 mm 4 m/s 758 mmHg 76%
    18:00 +21°C° 0 mm 4 m/s 759 mmHg 77%
    19:00 +20°C° 0 mm 4 m/s 759 mmHg 79%
    20:00 +20°C° 0 mm 3 m/s 760 mmHg 81%
    21:00 +19°C° 0 mm 3 m/s 760 mmHg 80%
    22:00 +19°C° 0 mm 3 m/s 760 mmHg 80%
    23:00 +19°C° 0 mm 2 m/s 760 mmHg 79%
    Mostrar mais